SCP
0 0 0 0 0 0 0 0 0 0 0 0 0 0 0 0 0 0 0 0 0 0 0 0 0 0 0 0 0 0 0 0 0 0 0 0 0 0 0 0 0 0 0
0 0 0 0 0 0 0 0 0 0 0 0 0 0 0 0 0 0 0 0 0 0 0 0 0 0 0 0 0 0 0 0 0 0 0 0 0 0 0 0 0 0 0
0 0 0 0 0 0 0 0 0 0 0 0 0 0 0 0 0 0 0 0 0 0 0 0 0 0 0 0 0 0 0 0 0 0 0 0 0 0 0 0 0 0 0
0 0 0 0 0 0 0 0 0 0 0 0 0 0 0 0 0 0 0 0 0 0 0 0 0 0 0 0 0 0 0 0 0 0 0 0 0 0 0 0 0 0 0
0 0 0 0 0 0 0 0 0 0 0 0 0 0 0 0 0 0 0 0 0 0 0 0 0 0 0 0 0 0 0 0 0 0 0 0 0 0 0 0 0 0 0
0 0 0 0 0 0 0 0 0 0 0 0 0 0 0 0 0 0 0 0 0 0 0 0 0 0 0 0 0 0 0 0 0 0 0 0 0 0 0 0 0 0 0
0 0 0 0 0 0 0 0 0 0 0 0 0 0 0 0 0 0 0 0 0 0 0 0 0 0 0 0 0 0 0 0 0 0 0 0 0 0 0 0 0 0 0
0 0 0 0 0 0 0 0 0 0 0 0 0 0 0 0 0 0 0 0 0 0 0 0 0 0 0 0 0 0 0 0 0 0 0 0 0 0 0 0 0 0 0
0 0 0 0 0 0 0 0 0 0 0 0 0 0 0 0 0 0 0 0 0 0 0 0 0 0 0 0 0 0 0 0 0 0 0 0 0 0 0 0 0 0 0
0 0 0 0 0 0 0 0 0 0 0 0 0 0 0 0 0 0 0 0 0 0 0 0 0 0 0 0 0 0 0 0 0 0 0 0 0 0 0 0 0 0 0
0 0 0 0 0 0 0 0 0 0 0 0 0 0 0 0 0 0 0 0 0 0 0 0 0 0 0 0 0 0 0 0 0 0 0 0 0 0 0 0 0 0 0
0 0 0 0 0 0 0 0 0 0 0 0 0 0 0 0 0 0 0 0 0 0 0 0 0 0 0 0 0 0 0 0 0 0 0 0 0 0 0 0 0 0 0
0 0 0 0 0 0 0 0 0 0 0 0 0 0 0 0 0 0 0 0 0 0 0 0 0 0 0 0 0 0 0 0 0 0 0 0 0 0 0 0 0 0 0
0 0 0 0 0 0 0 0 0 0 0 0 0 0 0 0 0 0 0 0 0 0 0 0 0 0 0 0 0 0 0 0 0 0 0 0 0 0 0 0 0 0 0
0 0 0 0 0 0 0 0 0 0 0 0 0 0 0 0 0 0 0 0 0 0 0 0 0 0 0 0 0 0 0 0 0 0 0 0 0 0 0 0 0 0 0
0 0 0 0 0 0 0 0 0 0 0 0 0 0 0 0 0 0 0 0 0 0 0 0 0 0 0 0 0 0 0 0 0 0 0 0 0 0 0 0 0 0 0
0 0 0 0 0 0 0 0 0 0 0 0 0 0 0 0 0 0 0 0 0 0 0 0 0 0 0 0 0 0 0 0 0 0 0 0 0 0 0 0 0 0 0
0 0 0 0 0 0 0 0 0 0 0 0 0 0 0 0 0 0 0 0 0 0 0 0 0 0 0 0 0 0 0 0 0 0 0 0 0 0 0 0 0 0 0
0 0 0 0 0 0 0 0 0 0 0 0 0 0 0 0 0 0 0 0 0 0 0 0 0 0 0 0 0 0 0 0 0 0 0 0 0 0 0 0 0 0 0
0 0 0 0 0 0 0 0 0 0 0 0 0 0 0 0 0 0 0 0 0 0 0 0 0 0 0 0 0 0 0 0 0 0 0 0 0 0 0 0 0 0 0
0 0 0 0 0 0 0 0 0 0 0 0 0 0 0 0 0 0 0 0 0 0 0 0 0 0 0 0 0 0 0 0 0 0 0 0 0 0 0 0 0 0 0
0 0 0 0 0 0 0 0 0 0 0 0 0 0 0 0 0 0 0 0 0 0 0 0 0 0 0 0 0 0 0 0 0 0 0 0 0 0 0 0 0 0 0
0 0 0 0 0 0 0 0 0 0 0 0 0 0 0 0 0 0 0 0 0 0 0 0 0 0 0 0 0 0 0 0 0 0 0 0 0 0 0 0 0 0 0
0 0 0 0 0 0 0 0 0 0 0 0 0 0 0 0 0 0 0 0 0 0 0 0 0 0 0 0 0 0 0 0 0 0 0 0 0 0 0 0 0 0 0
0 0 0 0 0 0 0 0 0 0 0 0 0 0 0 0 0 0 0 0 0 0 0 0 0 0 0 0 0 0 0 0 0 0 0 0 0 0 0 0 0 0 0
0 0 0 0 0 0 0 0 0 0 0 0 0 0 0 0 0 0 0 0 0 0 0 0 0 0 0 0 0 0 0 0 0 0 0 0 0 0 0 0 0 0 0
Wind_Speed
6 5 4 4 4 3 3 3 3 3 4 4 3 4 4 4 4 3 3 9 10 10 9 8 8 8 8 8 8 9 9 9 10 10 10 10 11 11 11 12 12 12 12
7 6 5 5 4 4 3 4 4 4 3 3 4 4 4 4 4 4 3 5 10 9 8 8 7 8 8 8 9 9 9 9 10 10 10 11 11 11 12 12 12 13 13
8 7 6 5 5 4 5 4 4 3 3 3 3 3 3 3 4 4 4 3 4 7 8 7 7 7 8 9 10 10 10 9 9 10 10 11 11 12 12 13 13 13 14
10 8 6 5 5 5 5 5 4 3 3 3 2 1 2 2 3 4 3 3 2 2 4 5 5 6 7 9 10 11 11 10 10 10 11 11 12 13 13 14 14 15 15
11 8 7 6 7 5 4 5 3 3 2 2 1 1 1 2 3 4 4 4 3 3 2 3 4 4 5 8 10 12 12 11 10 10 11 12 12 13 14 15 16 16 16
10 9 7 8 7 6 4 4 4 3 2 2 1 2 1 1 2 3 4 3 3 3 3 2 2 1 4 6 9 11 12 12 11 11 12 13 13 14 15 17 17 18 18
11 10 8 8 7 7 7 7 4 4 2 1 2 2 2 2 1 1 2 2 2 2 2 2 1 0 2 5 7 10 12 12 12 12 13 14 14 16 17 18 19 19 20
12 11 12 9 8 7 7 6 5 4 2 2 3 2 1 2 1 1 0 1 1 1 1 1 0 1 2 2 5 11 12 12 13 14 15 15 17 18 19 20 20 20 20
12 11 12 10 9 8 8 7 6 6 4 2 1 3 3 3 1 2 2 1 1 1 1 1 2 2 3 3 4 7 11 13 14 16 17 18 19 20 21 22 22 21 21
10 11 12 11 10 7 8 7 5 4 5 3 2 2 2 3 2 1 2 2 1 1 1 2 3 4 4 3 5 10 13 14 16 17 19 21 22 22 23 23 23 23 22
8 10 11 10 10 8 8 7 6 5 4 4 3 2 2 2 2 2 2 3 3 2 2 3 3 3 4 4 4 8 14 16 18 20 22 23 24 24 24 24 24 24 24
5 7 9 9 9 8 8 8 7 7 5 5 3 3 3 2 2 2 2 2 3 3 3 3 2 2 2 3 6 14 17 18 20 22 23 24 25 25 25 25 25 25 25
6 9 9 9 9 9 9 8 7 6 6 6 4 3 2 2 2 3 2 2 2 3 3 2 2 1 1 2 5 18 16 19 21 23 24 25 25 24 24 25 25 25 25
7 9 9 9 10 10 9 8 7 6 5 5 5 4 2 2 2 3 3 2 2 3 3 4 2 2 1 3 9 17 9 20 23 24 25 25 24 24 24 25 25 25 26
8 10 10 10 10 10 9 8 6 6 6 4 4 3 2 2 2 2 2 3 3 3 3 4 3 2 3 4 10 7 6 18 24 24 24 24 24 24 25 25 25 25 25
11 12 12 11 11 10 9 8 7 6 5 4 3 3 2 2 2 2 2 3 4 4 4 4 4 4 6 8 14 8 8 22 22 23 23 24 24 25 25 25 25 25 26
13 13 12 12 11 10 8 7 6 6 5 4 2 2 2 2 2 2 2 2 3 4 6 5 4 4 5 8 9 8 9 8 10 21 24 25 25 25 25 25 25 26 26
12 12 12 12 11 9 8 7 7 5 4 3 2 1 2 2 3 3 3 4 4 4 5 8 4 4 6 7 8 9 10 10 8 19 24 25 25 25 25 25 26 26 26
13 12 12 11 11 9 8 6 6 5 4 2 1 1 2 2 3 3 4 4 4 5 5 6 7 4 5 6 7 9 10 8 10 15 20 22 24 25 25 26 26 27 27
13 12 12 11 10 9 8 7 6 5 4 2 2 1 2 3 4 5 4 5 5 5 5 5 7 6 5 6 6 7 9 6 8 11 15 17 20 23 24 26 26 27 27
13 12 12 11 9 7 6 6 5 4 3 2 2 3 3 5 7 6 5 5 4 4 4 5 6 7 7 6 7 7 11 9 8 9 8 7 9 9 12 19 22 25 26
13 12 11 9 8 6 9 8 6 4 2 1 3 3 5 5 8 11 13 13 12 7 6 5 6 8 10 9 8 9 11 12 11 4 5 9 8 10 8 7 19 26 27
12 11 9 8 7 7 8 6 6 4 2 1 2 3 4 5 8 5 10 14 13 16 16 10 9 10 11 10 11 12 11 11 13 8 9 13 9 11 9 12 24 27 28
9 8 7 6 5 4 5 4 4 3 1 1 2 3 4 5 7 9 6 6 6 7 11 9 9 10 11 10 10 11 11 11 10 8 7 11 11 11 11 8 21 27 26
7 6 5 5 4 2 3 2 3 2 1 3 3 4 5 5 13 16 8 7 8 8 13 18 20 19 22 22 18 9 7 10 12 10 5 6 6 9 10 11 13 20 21
6 5 4 3 2 1 1 0 1 2 2 3 3 4 8 11 14 16 8 7 9 9 9 10 11 13 12 13 18 8 6 9 10 8 3 4 5 7 9 5 5 7 12
Wind_Direction
180 178 181 178 181 171 161 149 132 119 105 93 89 98 101 108 110 88 82 101 102 101 95 82 68 54 41 31 23 17 11 7 4 2 358 355 352 349 345 342 338 334 330
181 180 180 177 177 168 155 145 138 122 104 93 83 89 100 110 115 111 91 100 108 106 98 84 65 49 34 22 15 10 7 5 2 358 354 351 349 345 341 337 334 330 326
180 178 175 174 171 154 139 124 116 101 93 82 77 83 99 115 131 131 116 98 103 109 107 91 68 48 31 17 8 2 1 0 357 354 349 347 345 341 336 333 330 326 322
178 172 170 168 156 144 138 132 124 101 88 86 82 69 90 118 136 145 136 132 126 118 116 110 80 51 31 15 3 358 353 351 349 346 343 341 339 336 333 329 325 321 317
175 169 165 158 150 141 139 138 120 119 115 109 115 99 97 134 146 153 158 165 166 154 146 125 97 65 30 9 359 353 346 342 340 337 335 334 332 330 327 324 320 316 312
172 163 158 156 151 143 139 132 123 100 107 122 91 71 49 116 138 158 171 174 182 176 161 132 103 37 11 357 352 346 341 335 331 329 327 326 324 324 323 319 316 312 309
169 163 159 158 157 154 153 142 124 114 97 98 94 51 16 32 96 149 165 168 179 169 151 149 164 244 316 336 341 336 334 327 322 320 320 318 319 319 317 315 312 309 305
171 168 163 166 161 147 146 148 136 125 108 89 127 121 40 345 343 27 54 168 153 100 102 94 303 288 289 293 297 320 324 319 314 313 312 313 315 314 313 311 308 305 303
172 168 167 163 162 158 162 159 147 139 139 102 96 148 155 214 276 332 11 45 86 95 58 15 351 326 309 292 287 301 307 309 308 306 307 309 311 310 308 307 305 303 302
171 166 165 161 159 155 154 156 144 140 135 139 109 71 111 141 154 290 328 1 18 84 22 348 340 330 326 315 312 316 315 311 306 305 306 308 309 307 306 305 303 303 303
164 164 161 156 154 149 145 139 134 130 125 137 143 133 106 80 107 150 269 316 331 315 315 315 318 330 337 348 340 332 329 320 313 311 309 308 307 306 304 303 303 303 301
150 157 153 150 146 143 140 136 130 125 119 120 123 130 139 145 155 155 213 269 290 292 296 293 304 330 346 15 352 341 332 324 318 313 309 306 305 305 304 304 303 301 299
161 163 153 147 143 137 132 129 123 121 121 123 124 116 116 127 133 142 163 235 277 291 300 300 269 310 6 358 333 329 323 319 315 311 307 304 304 305 304 303 300 298 296
154 149 142 138 135 132 130 125 120 119 116 117 120 123 125 137 141 153 164 170 277 293 285 277 291 279 296 322 317 321 316 313 311 306 304 304 305 303 301 299 298 297 296
137 139 135 134 130 128 127 123 121 119 122 120 130 135 135 156 155 161 163 165 184 258 278 269 282 282 305 307 306 306 294 306 305 304 305 303 301 301 300 298 297 295 294
141 140 136 133 129 125 124 119 120 123 126 125 135 144 155 177 174 175 183 188 186 204 250 254 252 274 296 303 305 308 294 304 306 303 300 301 301 299 298 297 296 295 294
141 139 136 133 129 126 123 121 122 129 127 123 133 161 200 199 198 206 205 208 212 205 252 266 249 270 279 284 295 291 289 285 287 298 300 300 299 299 298 298 296 295 294
135 132 130 127 123 120 119 122 124 120 121 129 135 177 231 228 224 223 222 229 232 225 239 274 273 266 266 274 281 284 294 293 287 295 298 299 300 299 297 296 295 296 296
126 125 123 121 118 115 113 113 111 108 103 97 94 254 262 250 252 247 242 243 244 250 240 266 282 271 270 277 283 283 283 280 285 292 297 298 296 296 296 296 298 298 296
121 118 115 112 111 111 110 106 103 98 87 67 31 327 291 262 253 253 251 248 249 256 261 268 280 283 279 278 279 290 296 279 284 290 288 289 291 295 294 295 295 294 293
111 110 108 106 106 107 107 106 102 96 80 40 357 327 303 295 286 280 270 254 247 249 260 268 280 289 291 295 294 292 298 297 284 276 274 275 281 278 282 286 290 289 287
104 103 103 106 104 105 114 111 106 99 79 21 330 321 313 309 310 318 312 304 296 287 283 275 283 289 293 291 293 294 297 300 299 268 280 289 281 281 278 270 283 288 289
98 97 99 102 103 113 119 113 106 114 93 351 320 320 322 321 331 301 299 302 300 298 297 294 289 286 288 288 288 288 287 288 291 293 293 292 286 285 281 284 290 290 291
100 103 106 111 118 128 126 120 111 118 128 292 294 290 292 295 302 302 284 279 271 277 284 284 271 272 276 277 273 284 291 293 287 282 275 284 287 285 286 280 286 286 287
102 106 113 119 121 134 147 142 118 157 252 287 291 294 305 295 305 312 308 292 286 282 293 294 293 295 298 302 303 301 297 298 296 293 273 266 278 291 286 275 274 281 286
106 108 102 99 112 144 213 261 11 179 273 293 297 294 311 314 311 315 307 295 296 293 290 295 298 299 297 293 298 290 278 285 291 293 257 261 286 308 298 261 252 269 281